Showing default

HULIANWANG DIGUI-110, 66920

Orbit data source: Space-Track

HULIANWANG DIGUI-110, 66920 is a payload satellite owned by Zhongguo Xingwang (CN) in LEO that was launched on Sat, 06 Dec 2025 UTC via a CHANG ZHENG 8A launch vehicle from the Wenchang Satellite Launch Center (WSC). Payload-class satellites include a variety of spacecraft equipped with specific instruments for various scientific and technological missions. These include communications satellites like Starlink; space stations such as the ISS; scientific satellites like the Hubble; Earth observation satellites from companies like Planet Labs, Umbra, and HawkEye 360; GPS; miniature CubeSats for education and research; and military/defense satellites.

Loading next visibility...
Identifier
66920, 2025-285F
Orbit
LEO
Country
Flag of CNCN / PRC
Related business
Manufacturer
CAST
Mission
Operational Civil Communications
Bus & Motor
XINGWANG C, Unknown motor
Mass
~700 kg wet, ~700 kg dry
Launch date (UTC)
2025-12-06 (6 months ago)
Launch vehicle
CHANG ZHENG 8A
Launch site
Wenchang Satellite Launch Center (WSC)
Object type
Payload
Rocket body
Debris
Shape & HBR
Box + 2 Pan, 14.5 m
Radar Cross Section
5.935 m², Large (>1 m²)

Expand to show TLE details & history
Last TLE update: 1 day ago

TLE from 1 day ago
0 HULIANWANG DIGUI-110
1 66920U 25285F   26170.61512817 -.00000136  00000-0 -26740-4 0  9997
2 66920  50.0086 137.2319 0001064 302.9985  57.0785 13.29324823 26385
Epoch: 2026-06-19T14:45Z
TLE epoch observation values (Epoch: 2026-06-19T14:45:47.073Z)
Latitude
-0.00002°
Longitude
7.94418°
Altitude
1,149.383 km
Speed
7.28 km/s
True Right ascension
09h 08m 55s
True Declination
0° 00' 00"
Sunlit
Object was in daylight at epoch
Visualization orbit readout
Latitude
Unknown
Longitude
Unknown
Altitude
Unknown
Speed
Unknown
Apparent Right ascension
Unknown
Apparent Declination
Unknown
Sunlit
N/A
Visualization observer readout
Local Sidereal Time
07:14:14
Azimuth
Unknown
Elevation
Unknown
Doppler factor
Unknown
Orbital elements
Apogee altitude
1,150.816 km
Perigee altitude
1,149.214 km
Semi-major axis
7,528.152 km
Eccentricity
0.00011
Inclination
50.0086°
RAAN
137.2319°
Arg. of periapsis
302.9985°
True anomaly
57.08874°
Mean anomaly
57.0785°
Eccentric anomaly
57.08362°
Mean motion
3.32285 °/min
Orbital period
108.34 mins
BSTAR
-0.00002674
Loading maneuver chart data...
Computing Atmospheric mass density...
Loading historical data...
Loading historical data...
Loading historical data...
Loading historical data...
Loading historical data...
Loading historical data...
Loading historical data...

Documentation

Showing up to 5 results
|